Simultaneous Nadir Overpasses (SNOs) Predictions

Prediction of SNOs between GOES-14 and NOAA-20 Satellite Orbit:

Table of predicted SNOs for the next 14.0 days since TLE Epoch: 7/26/2019
Index Date Time (GOES-14) GOES-14 Lat,Lon NOAA-20 Lat,Lon Distance(km) Time Diff (sec)
1 07/27/2019 20:33:06 0.28,-104.82 -0.28,-107.38 291.92 80
2 07/28/2019 20:17:01 0.27,-104.81 0.72,-102.84 224.56 80
3 07/30/2019 08:36:07 -0.31,-104.62 0.48,-108.10 397.28 80
4 07/31/2019 08:20:01 -0.30,-104.61 -0.52,-103.57 118.63 80
5 08/01/2019 20:39:18 0.32,-104.78 -0.62,-108.88 468.17 80
6 08/02/2019 20:23:12 0.31,-104.78 0.38,-104.35 48.42 80
7 08/05/2019 08:26:14 -0.33,-104.59 -0.24,-105.08 56.17 80
8 08/06/2019 08:07:29 -0.31,-104.58 -1.24,-100.55 460.04 80
9 08/07/2019 20:26:45 0.34,-104.75 0.10,-105.86 126.70 80
10 08/08/2019 20:10:39 0.33,-104.74 1.11,-101.33 389.94 80




NCC Satellite Simultaneous Nadir Overpasses (SNOs) Prediction Service
